QPF
0.00 0.00 0.00 0.00 0.00 0.00 0.01 0.01 0.01 0.02 0.03 0.04 0.06 0.09 0.17 0.26 0.26 0.23 0.23 0.23 0.22 0.22 0.21 0.19 0.20 0.16 0.12 0.11 0.08 0.05 0.03 0.02 0.01 0.02 0.02 0.01 0.00 0.00 0.00 0.00 0.00 0.00 0.00
0.00 0.00 0.00 0.00 0.00 0.00 0.00 0.01 0.01 0.01 0.01 0.02 0.03 0.04 0.07 0.13 0.17 0.18 0.18 0.20 0.24 0.24 0.22 0.21 0.18 0.15 0.15 0.16 0.12 0.09 0.08 0.04 0.02 0.04 0.05 0.04 0.03 0.01 0.00 0.00 0.00 0.00 0.00
0.00 0.00 0.00 0.00 0.00 0.00 0.00 0.01 0.01 0.01 0.01 0.01 0.01 0.02 0.03 0.05 0.07 0.09 0.11 0.14 0.17 0.22 0.28 0.26 0.24 0.20 0.19 0.17 0.15 0.12 0.11 0.09 0.05 0.04 0.06 0.05 0.05 0.05 0.02 0.00 0.00 0.01 0.01
0.00 0.01 0.00 0.00 0.01 0.01 0.01 0.01 0.01 0.00 0.00 0.00 0.01 0.01 0.02 0.03 0.05 0.07 0.10 0.13 0.16 0.16 0.21 0.24 0.25 0.22 0.20 0.18 0.17 0.12 0.09 0.10 0.08 0.06 0.07 0.06 0.06 0.06 0.05 0.03 0.01 0.00 0.01
0.00 0.01 0.01 0.01 0.01 0.02 0.02 0.01 0.02 0.02 0.02 0.01 0.01 0.02 0.02 0.03 0.03 0.05 0.06 0.07 0.10 0.13 0.16 0.20 0.23 0.22 0.21 0.19 0.20 0.16 0.11 0.09 0.10 0.10 0.09 0.09 0.07 0.06 0.08 0.08 0.05 0.03 0.01
0.01 0.01 0.01 0.02 0.04 0.02 0.03 0.02 0.04 0.05 0.05 0.04 0.04 0.03 0.03 0.02 0.02 0.03 0.04 0.05 0.06 0.08 0.11 0.16 0.22 0.22 0.20 0.21 0.21 0.21 0.17 0.14 0.13 0.12 0.12 0.13 0.12 0.10 0.12 0.12 0.12 0.09 0.04
0.01 0.01 0.02 0.03 0.03 0.04 0.04 0.04 0.04 0.06 0.06 0.05 0.05 0.04 0.05 0.04 0.03 0.03 0.03 0.03 0.04 0.05 0.07 0.10 0.15 0.19 0.20 0.23 0.23 0.24 0.23 0.22 0.21 0.18 0.15 0.14 0.12 0.11 0.12 0.12 0.11 0.08 0.05
0.01 0.02 0.02 0.03 0.05 0.08 0.09 0.08 0.08 0.09 0.07 0.07 0.06 0.07 0.07 0.06 0.05 0.03 0.03 0.04 0.04 0.04 0.05 0.07 0.10 0.15 0.16 0.16 0.17 0.20 0.20 0.22 0.21 0.19 0.18 0.17 0.14 0.12 0.10 0.10 0.09 0.08 0.06
0.02 0.03 0.04 0.06 0.11 0.13 0.16 0.17 0.14 0.15 0.12 0.10 0.08 0.11 0.10 0.07 0.07 0.07 0.05 0.04 0.04 0.04 0.04 0.04 0.04 0.07 0.09 0.10 0.11 0.13 0.14 0.17 0.19 0.19 0.19 0.18 0.17 0.16 0.16 0.13 0.09 0.08 0.06
0.02 0.04 0.07 0.12 0.15 0.16 0.18 0.18 0.14 0.14 0.17 0.14 0.08 0.08 0.10 0.11 0.10 0.10 0.07 0.05 0.05 0.05 0.05 0.05 0.05 0.06 0.06 0.07 0.09 0.11 0.12 0.12 0.15 0.18 0.18 0.17 0.17 0.16 0.16 0.13 0.10 0.08 0.06
0.04 0.05 0.06 0.10 0.12 0.15 0.16 0.19 0.19 0.16 0.15 0.13 0.10 0.09 0.08 0.08 0.09 0.08 0.07 0.06 0.05 0.06 0.06 0.05 0.05 0.07 0.09 0.08 0.08 0.09 0.11 0.12 0.13 0.14 0.16 0.15 0.13 0.13 0.14 0.13 0.11 0.09 0.08
0.02 0.03 0.03 0.05 0.07 0.08 0.07 0.08 0.14 0.15 0.12 0.08 0.08 0.07 0.06 0.05 0.06 0.07 0.05 0.04 0.04 0.04 0.04 0.04 0.04 0.05 0.07 0.08 0.09 0.09 0.11 0.13 0.12 0.12 0.13 0.14 0.13 0.12 0.11 0.10 0.09 0.08 0.07
0.01 0.02 0.02 0.02 0.05 0.05 0.04 0.03 0.04 0.07 0.08 0.06 0.04 0.04 0.04 0.03 0.04 0.03 0.03 0.04 0.03 0.02 0.03 0.03 0.03 0.04 0.05 0.07 0.08 0.09 0.10 0.13 0.13 0.13 0.15 0.15 0.15 0.13 0.10 0.09 0.08 0.07 0.05
0.01 0.01 0.01 0.01 0.01 0.02 0.02 0.03 0.03 0.03 0.03 0.04 0.04 0.04 0.06 0.05 0.04 0.02 0.02 0.02 0.02 0.01 0.02 0.03 0.03 0.04 0.04 0.05 0.08 0.10 0.11 0.12 0.13 0.13 0.13 0.11 0.11 0.12 0.11 0.09 0.08 0.05 0.05
0.00 0.00 0.00 0.00 0.00 0.01 0.01 0.01 0.01 0.01 0.01 0.02 0.02 0.04 0.09 0.09 0.05 0.02 0.02 0.01 0.02 0.02 0.02 0.02 0.03 0.04 0.04 0.04 0.05 0.07 0.09 0.11 0.12 0.12 0.11 0.11 0.10 0.08 0.07 0.06 0.06 0.05 0.04
0.00 0.00 0.00 0.00 0.00 0.00 0.00 0.00 0.00 0.00 0.00 0.00 0.01 0.01 0.01 0.04 0.06 0.04 0.02 0.01 0.02 0.02 0.01 0.01 0.02 0.03 0.04 0.05 0.05 0.07 0.07 0.10 0.11 0.12 0.12 0.11 0.10 0.07 0.05 0.05 0.05 0.05 0.04
0.00 0.00 0.00 0.00 0.00 0.00 0.00 0.00 0.00 0.00 0.00 0.00 0.00 0.00 0.00 0.01 0.03 0.05 0.03 0.02 0.02 0.02 0.01 0.01 0.01 0.02 0.06 0.08 0.07 0.08 0.08 0.09 0.11 0.11 0.13 0.13 0.11 0.11 0.11 0.07 0.03 0.02 0.02
0.00 0.00 0.00 0.00 0.00 0.00 0.00 0.00 0.00 0.00 0.00 0.00 0.00 0.00 0.00 0.00 0.00 0.00 0.01 0.01 0.01 0.01 0.01 0.00 0.01 0.02 0.06 0.09 0.08 0.07 0.08 0.09 0.11 0.13 0.12 0.14 0.11 0.09 0.10 0.07 0.07 0.04 0.01
0.00 0.00 0.00 0.00 0.00 0.00 0.00 0.00 0.00 0.00 0.00 0.00 0.00 0.00 0.00 0.00 0.00 0.00 0.00 0.00 0.00 0.00 0.00 0.00 0.00 0.01 0.03 0.04 0.04 0.05 0.07 0.08 0.08 0.11 0.10 0.11 0.08 0.08 0.10 0.11 0.10 0.06 0.02
0.00 0.00 0.00 0.00 0.00 0.00 0.00 0.00 0.00 0.00 0.00 0.00 0.00 0.00 0.00 0.00 0.00 0.00 0.00 0.00 0.00 0.00 0.00 0.00 0.00 0.01 0.02 0.03 0.03 0.05 0.06 0.06 0.07 0.08 0.08 0.10 0.09 0.08 0.09 0.10 0.13 0.10 0.03
0.00 0.00 0.00 0.00 0.00 0.00 0.00 0.00 0.00 0.00 0.00 0.00 0.00 0.00 0.00 0.00 0.00 0.00 0.00 0.00 0.00 0.00 0.00 0.00 0.01 0.00 0.01 0.02 0.04 0.05 0.05 0.07 0.07 0.09 0.07 0.06 0.08 0.07 0.07 0.08 0.08 0.08 0.04
0.00 0.00 0.00 0.00 0.00 0.00 0.00 0.00 0.00 0.00 0.00 0.00 0.00 0.00 0.00 0.00 0.00 0.00 0.00 0.00 0.00 0.00 0.00 0.01 0.01 0.01 0.01 0.01 0.02 0.04 0.06 0.07 0.07 0.07 0.06 0.04 0.06 0.06 0.05 0.05 0.04 0.05 0.06
0.00 0.00 0.00 0.00 0.00 0.00 0.00 0.00 0.00 0.00 0.00 0.00 0.00 0.00 0.00 0.00 0.00 0.00 0.00 0.00 0.00 0.00 0.00 0.00 0.00 0.01 0.01 0.01 0.03 0.05 0.07 0.06 0.05 0.05 0.06 0.05 0.05 0.04 0.03 0.04 0.05 0.06 0.06
0.00 0.00 0.00 0.00 0.00 0.00 0.00 0.00 0.00 0.00 0.00 0.00 0.00 0.00 0.00 0.00 0.00 0.00 0.00 0.00 0.00 0.00 0.00 0.00 0.00 0.01 0.01 0.01 0.01 0.03 0.03 0.04 0.04 0.04 0.04 0.04 0.03 0.03 0.02 0.03 0.03 0.04 0.04
0.00 0.00 0.00 0.00 0.00 0.00 0.00 0.00 0.00 0.00 0.00 0.00 0.00 0.00 0.00 0.00 0.00 0.00 0.00 0.00 0.00 0.00 0.00 0.00 0.00 0.00 0.01 0.00 0.01 0.01 0.01 0.02 0.02 0.02 0.02 0.02 0.02 0.02 0.01 0.02 0.01 0.01 0.02
0.00 0.00 0.00 0.00 0.00 0.00 0.00 0.00 0.00 0.00 0.00 0.00 0.00 0.00 0.00 0.00 0.00 0.00 0.00 0.00 0.00 0.00 0.00 0.00 0.00 0.00 0.00 0.00 0.00 0.01 0.01 0.01 0.01 0.01 0.01 0.01 0.01 0.01 0.01 0.01 0.00 0.01 0.01
MSLP
1019.85 1019.48 1019.18 1018.91 1018.64 1018.32 1017.94 1017.52 1017.06 1016.60 1016.17 1015.79 1015.47 1015.22 1015.01 1014.84 1014.70 1014.56 1014.43 1014.34 1014.28 1014.27 1014.34 1014.48 1014.69 1014.95 1015.23 1015.50 1015.74 1015.94 1016.08 1016.16 1016.21 1016.22 1016.22 1016.22 1016.22 1016.24 1016.27 1016.31 1016.35 1016.41 1016.48
1019.76 1019.35 1019.01 1018.70 1018.38 1018.03 1017.63 1017.18 1016.71 1016.25 1015.81 1015.43 1015.11 1014.86 1014.65 1014.47 1014.31 1014.17 1014.04 1013.93 1013.88 1013.88 1013.96 1014.11 1014.34 1014.61 1014.90 1015.18 1015.43 1015.63 1015.78 1015.89 1015.96 1016.01 1016.06 1016.11 1016.17 1016.22 1016.27 1016.31 1016.33 1016.34 1016.36
1019.79 1019.35 1018.96 1018.59 1018.22 1017.82 1017.37 1016.89 1016.40 1015.91 1015.47 1015.08 1014.75 1014.48 1014.25 1014.05 1013.88 1013.71 1013.56 1013.45 1013.38 1013.38 1013.46 1013.61 1013.83 1014.10 1014.39 1014.67 1014.93 1015.14 1015.31 1015.44 1015.56 1015.67 1015.79 1015.92 1016.06 1016.20 1016.31 1016.39 1016.43 1016.43 1016.41
1019.93 1019.45 1019.01 1018.59 1018.16 1017.70 1017.20 1016.68 1016.16 1015.65 1015.18 1014.77 1014.43 1014.13 1013.88 1013.66 1013.45 1013.26 1013.08 1012.93 1012.84 1012.82 1012.88 1013.02 1013.23 1013.48 1013.75 1014.02 1014.28 1014.50 1014.69 1014.86 1015.03 1015.22 1015.43 1015.67 1015.92 1016.16 1016.37 1016.53 1016.62 1016.65 1016.62
1020.11 1019.61 1019.13 1018.66 1018.17 1017.66 1017.11 1016.55 1015.99 1015.46 1014.98 1014.55 1014.18 1013.87 1013.59 1013.34 1013.10 1012.87 1012.66 1012.48 1012.35 1012.29 1012.31 1012.41 1012.59 1012.81 1013.06 1013.31 1013.56 1013.79 1014.00 1014.22 1014.46 1014.72 1015.03 1015.38 1015.74 1016.11 1016.43 1016.69 1016.86 1016.93 1016.92
1020.27 1019.76 1019.26 1018.75 1018.22 1017.66 1017.08 1016.49 1015.91 1015.36 1014.86 1014.42 1014.04 1013.71 1013.41 1013.13 1012.86 1012.60 1012.36 1012.14 1011.97 1011.86 1011.83 1011.89 1012.01 1012.19 1012.41 1012.64 1012.87 1013.11 1013.34 1013.60 1013.89 1014.23 1014.63 1015.07 1015.55 1016.02 1016.46 1016.82 1017.07 1017.20 1017.22
1020.38 1019.87 1019.35 1018.82 1018.27 1017.69 1017.09 1016.48 1015.89 1015.34 1014.84 1014.39 1014.01 1013.67 1013.36 1013.07 1012.79 1012.50 1012.23 1011.97 1011.76 1011.61 1011.53 1011.52 1011.59 1011.72 1011.90 1012.10 1012.32 1012.55 1012.81 1013.09 1013.42 1013.81 1014.27 1014.78 1015.34 1015.90 1016.42 1016.87 1017.20 1017.40 1017.47
1020.41 1019.91 1019.39 1018.86 1018.30 1017.72 1017.12 1016.52 1015.94 1015.40 1014.91 1014.47 1014.09 1013.76 1013.45 1013.16 1012.87 1012.58 1012.29 1012.01 1011.77 1011.57 1011.44 1011.38 1011.40 1011.48 1011.61 1011.78 1011.98 1012.21 1012.46 1012.75 1013.10 1013.51 1013.99 1014.53 1015.12 1015.73 1016.30 1016.81 1017.21 1017.47 1017.58
1020.38 1019.88 1019.38 1018.87 1018.33 1017.77 1017.20 1016.62 1016.07 1015.55 1015.08 1014.66 1014.29 1013.97 1013.68 1013.39 1013.11 1012.82 1012.53 1012.24 1011.98 1011.75 1011.58 1011.48 1011.45 1011.49 1011.58 1011.72 1011.89 1012.10 1012.34 1012.61 1012.95 1013.34 1013.80 1014.33 1014.91 1015.51 1016.10 1016.63 1017.07 1017.38 1017.54
1020.30 1019.83 1019.36 1018.87 1018.37 1017.85 1017.33 1016.80 1016.28 1015.80 1015.35 1014.96 1014.61 1014.30 1014.02 1013.75 1013.48 1013.20 1012.92 1012.63 1012.36 1012.12 1011.93 1011.80 1011.73 1011.73 1011.79 1011.90 1012.04 1012.22 1012.43 1012.67 1012.96 1013.31 1013.71 1014.18 1014.71 1015.26 1015.82 1016.35 1016.79 1017.13 1017.34
1020.22 1019.77 1019.33 1018.89 1018.44 1017.99 1017.52 1017.05 1016.59 1016.14 1015.73 1015.36 1015.02 1014.72 1014.45 1014.19 1013.93 1013.67 1013.40 1013.13 1012.86 1012.63 1012.42 1012.28 1012.19 1012.16 1012.19 1012.27 1012.38 1012.52 1012.69 1012.88 1013.11 1013.38 1013.70 1014.08 1014.52 1014.99 1015.49 1015.97 1016.41 1016.76 1017.01
1020.15 1019.73 1019.32 1018.93 1018.55 1018.16 1017.77 1017.36 1016.96 1016.57 1016.19 1015.83 1015.51 1015.21 1014.94 1014.68 1014.43 1014.18 1013.92 1013.66 1013.41 1013.18 1012.98 1012.83 1012.72 1012.68 1012.68 1012.73 1012.81 1012.91 1013.04 1013.17 1013.33 1013.51 1013.74 1014.02 1014.35 1014.73 1015.14 1015.57 1015.97 1016.33 1016.61
1020.10 1019.69 1019.32 1018.99 1018.66 1018.35 1018.03 1017.70 1017.36 1017.02 1016.67 1016.34 1016.02 1015.73 1015.45 1015.19 1014.93 1014.69 1014.44 1014.19 1013.96 1013.73 1013.53 1013.38 1013.26 1013.20 1013.18 1013.20 1013.25 1013.32 1013.39 1013.48 1013.57 1013.68 1013.81 1013.99 1014.22 1014.50 1014.83 1015.19 1015.55 1015.90 1016.19
1020.04 1019.65 1019.32 1019.02 1018.76 1018.52 1018.27 1018.02 1017.75 1017.46 1017.15 1016.84 1016.53 1016.24 1015.95 1015.68 1015.42 1015.17 1014.93 1014.69 1014.46 1014.24 1014.04 1013.88 1013.75 1013.66 1013.62 1013.61 1013.63 1013.67 1013.71 1013.75 1013.79 1013.84 1013.90 1014.00 1014.15 1014.34 1014.59 1014.89 1015.21 1015.53 1015.83
1019.96 1019.59 1019.28 1019.02 1018.81 1018.62 1018.45 1018.27 1018.06 1017.83 1017.58 1017.30 1017.01 1016.72 1016.43 1016.16 1015.89 1015.64 1015.39 1015.15 1014.92 1014.69 1014.48 1014.30 1014.15 1014.04 1013.97 1013.94 1013.93 1013.94 1013.96 1013.97 1013.99 1014.00 1014.03 1014.08 1014.16 1014.29 1014.48 1014.71 1014.99 1015.28 1015.58
1019.86 1019.50 1019.20 1018.97 1018.79 1018.66 1018.54 1018.42 1018.29 1018.12 1017.92 1017.69 1017.43 1017.16 1016.89 1016.61 1016.35 1016.09 1015.84 1015.59 1015.35 1015.11 1014.88 1014.67 1014.49 1014.34 1014.24 1014.17 1014.14 1014.13 1014.14 1014.16 1014.17 1014.18 1014.20 1014.23 1014.29 1014.38 1014.52 1014.71 1014.94 1015.20 1015.47
1019.75 1019.39 1019.10 1018.87 1018.72 1018.62 1018.55 1018.49 1018.42 1018.32 1018.18 1018.00 1017.80 1017.56 1017.32 1017.07 1016.82 1016.56 1016.31 1016.05 1015.79 1015.52 1015.26 1015.02 1014.79 1014.60 1014.46 1014.36 1014.30 1014.29 1014.30 1014.33 1014.36 1014.40 1014.43 1014.48 1014.53 1014.62 1014.73 1014.88 1015.07 1015.29 1015.53
1019.63 1019.28 1018.99 1018.77 1018.63 1018.55 1018.52 1018.50 1018.49 1018.45 1018.38 1018.27 1018.12 1017.94 1017.74 1017.53 1017.30 1017.06 1016.81 1016.55 1016.27 1015.97 1015.68 1015.38 1015.11 1014.87 1014.68 1014.55 1014.47 1014.45 1014.47 1014.52 1014.59 1014.67 1014.75 1014.83 1014.91 1014.99 1015.09 1015.22 1015.37 1015.54 1015.74
1019.55 1019.21 1018.92 1018.70 1018.57 1018.50 1018.49 1018.51 1018.54 1018.56 1018.55 1018.51 1018.43 1018.31 1018.17 1018.00 1017.81 1017.60 1017.36 1017.09 1016.80 1016.48 1016.15 1015.81 1015.49 1015.20 1014.97 1014.80 1014.70 1014.67 1014.70 1014.78 1014.89 1015.01 1015.14 1015.26 1015.37 1015.47 1015.57 1015.68 1015.79 1015.92 1016.07
1019.49 1019.18 1018.90 1018.70 1018.56 1018.50 1018.51 1018.55 1018.62 1018.68 1018.73 1018.74 1018.72 1018.67 1018.59 1018.47 1018.33 1018.15 1017.93 1017.68 1017.38 1017.05 1016.69 1016.31 1015.95 1015.61 1015.34 1015.13 1015.01 1014.97 1015.01 1015.10 1015.25 1015.41 1015.58 1015.74 1015.88 1016.00 1016.11 1016.20 1016.29 1016.38 1016.49
1019.46 1019.19 1018.94 1018.76 1018.63 1018.58 1018.60 1018.66 1018.74 1018.83 1018.91 1018.97 1019.01 1019.01 1018.98 1018.91 1018.82 1018.68 1018.49 1018.26 1017.97 1017.64 1017.26 1016.87 1016.48 1016.11 1015.80 1015.57 1015.42 1015.36 1015.39 1015.50 1015.65 1015.84 1016.04 1016.22 1016.39 1016.52 1016.63 1016.72 1016.79 1016.86 1016.94
1019.43 1019.21 1019.01 1018.86 1018.76 1018.72 1018.74 1018.81 1018.90 1019.01 1019.10 1019.19 1019.25 1019.29 1019.31 1019.29 1019.23 1019.14 1018.99 1018.79 1018.53 1018.21 1017.85 1017.46 1017.06 1016.68 1016.34 1016.08 1015.91 1015.83 1015.84 1015.93 1016.08 1016.27 1016.47 1016.66 1016.83 1016.98 1017.09 1017.17 1017.24 1017.31 1017.37
1019.35 1019.21 1019.07 1018.96 1018.90 1018.88 1018.91 1018.98 1019.07 1019.17 1019.27 1019.36 1019.44 1019.49 1019.53 1019.55 1019.53 1019.48 1019.38 1019.22 1019.01 1018.73 1018.40 1018.03 1017.65 1017.27 1016.93 1016.66 1016.46 1016.35 1016.33 1016.39 1016.51 1016.67 1016.85 1017.03 1017.19 1017.33 1017.44 1017.53 1017.61 1017.68 1017.75
1019.19 1019.12 1019.05 1019.00 1018.98 1018.99 1019.04 1019.11 1019.19 1019.28 1019.37 1019.45 1019.51 1019.58 1019.62 1019.66 1019.68 1019.67 1019.62 1019.52 1019.36 1019.14 1018.87 1018.55 1018.21 1017.86 1017.53 1017.25 1017.04 1016.89 1016.83 1016.84 1016.91 1017.03 1017.17 1017.31 1017.45 1017.58 1017.69 1017.79 1017.88 1017.97 1018.07
1018.93 1018.93 1018.93 1018.94 1018.96 1019.01 1019.07 1019.14 1019.22 1019.29 1019.36 1019.41 1019.47 1019.52 1019.57 1019.62 1019.66 1019.69 1019.69 1019.66 1019.57 1019.43 1019.23 1018.98 1018.70 1018.40 1018.11 1017.84 1017.61 1017.44 1017.34 1017.29 1017.30 1017.35 1017.44 1017.53 1017.64 1017.75 1017.85 1017.96 1018.07 1018.19 1018.33
1018.57 1018.63 1018.68 1018.74 1018.82 1018.90 1018.98 1019.05 1019.12 1019.18 1019.22 1019.26 1019.29 1019.32 1019.37 1019.43 1019.49 1019.56 1019.61 1019.64 1019.64 1019.58 1019.47 1019.31 1019.11 1018.87 1018.62 1018.38 1018.16 1017.97 1017.82 1017.73 1017.68 1017.67 1017.69 1017.74 1017.81 1017.89 1017.99 1018.10 1018.23 1018.38 1018.55
Thickness
5688 5691 5692 5694 5697 5699 5701 5704 5706 5710 5713 5716 5719 5724 5728 5733 5736 5738 5738 5739 5741 5743 5743 5745 5746 5746 5745 5747 5748 5747 5746 5746 5750 5748 5747 5751 5753 5756 5755 5755 5756 5756 5755
5676 5679 5681 5682 5684 5686 5689 5692 5696 5699 5702 5705 5708 5713 5718 5724 5729 5732 5734 5735 5737 5738 5740 5741 5741 5742 5742 5742 5743 5742 5742 5743 5744 5742 5738 5736 5741 5743 5750 5751 5750 5753 5752
5664 5666 5667 5669 5672 5673 5676 5680 5683 5687 5691 5694 5698 5703 5709 5714 5719 5723 5727 5730 5733 5735 5736 5737 5738 5738 5738 5738 5738 5738 5736 5735 5739 5742 5736 5731 5729 5737 5744 5747 5747 5747 5748
5654 5655 5656 5658 5660 5662 5665 5668 5672 5676 5679 5682 5686 5690 5695 5700 5708 5714 5720 5725 5728 5731 5733 5734 5734 5735 5735 5736 5736 5736 5735 5732 5731 5733 5735 5737 5737 5729 5730 5736 5741 5743 5742
5646 5645 5646 5647 5649 5652 5654 5657 5660 5664 5667 5670 5674 5679 5685 5691 5698 5705 5711 5717 5722 5726 5728 5730 5731 5731 5732 5732 5732 5732 5731 5730 5729 5728 5727 5726 5728 5729 5725 5722 5728 5732 5735
5640 5640 5640 5640 5641 5643 5645 5647 5650 5653 5656 5660 5664 5669 5674 5681 5688 5695 5701 5707 5713 5718 5722 5724 5725 5726 5727 5727 5727 5726 5726 5725 5725 5725 5724 5721 5719 5719 5720 5717 5717 5719 5724
5635 5634 5633 5634 5634 5635 5637 5640 5643 5645 5648 5652 5655 5660 5666 5672 5679 5686 5693 5698 5703 5707 5712 5717 5719 5721 5722 5722 5722 5721 5720 5720 5720 5719 5719 5718 5718 5717 5715 5712 5712 5712 5715
5630 5629 5629 5628 5628 5630 5632 5634 5637 5639 5642 5645 5648 5653 5658 5664 5671 5679 5685 5691 5696 5700 5705 5709 5712 5714 5715 5716 5716 5716 5716 5715 5714 5714 5713 5712 5711 5711 5710 5709 5706 5703 5704
5628 5627 5627 5626 5626 5627 5628 5630 5632 5634 5636 5639 5643 5647 5652 5657 5663 5671 5678 5682 5688 5693 5697 5701 5704 5705 5706 5708 5709 5709 5710 5709 5709 5708 5707 5706 5705 5704 5703 5702 5701 5697 5694
5628 5628 5626 5625 5625 5626 5628 5629 5631 5631 5633 5636 5638 5642 5646 5651 5656 5662 5668 5673 5678 5683 5688 5692 5694 5696 5698 5699 5700 5701 5702 5702 5701 5701 5700 5698 5698 5697 5696 5695 5695 5694 5692
5630 5629 5628 5628 5627 5628 5629 5629 5630 5631 5632 5634 5636 5639 5643 5647 5652 5656 5660 5665 5670 5674 5677 5681 5684 5686 5687 5689 5691 5692 5693 5693 5693 5693 5692 5691 5690 5689 5688 5687 5687 5687 5688
5634 5633 5632 5631 5631 5631 5631 5630 5630 5630 5631 5633 5636 5639 5641 5644 5647 5650 5653 5658 5662 5665 5669 5671 5673 5675 5677 5678 5680 5682 5683 5684 5683 5683 5683 5682 5682 5681 5681 5680 5680 5681 5681
5639 5638 5636 5635 5633 5633 5633 5632 5632 5631 5632 5633 5635 5638 5640 5641 5643 5645 5648 5651 5654 5657 5659 5661 5663 5665 5667 5669 5670 5671 5673 5674 5674 5675 5674 5674 5673 5672 5673 5673 5674 5674 5676
5644 5642 5640 5639 5637 5637 5636 5635 5634 5634 5634 5634 5635 5636 5637 5639 5640 5641 5643 5645 5647 5648 5650 5652 5653 5655 5657 5659 5661 5662 5663 5665 5666 5666 5667 5667 5667 5666 5667 5667 5668 5668 5668
5647 5646 5644 5643 5642 5641 5640 5639 5637 5637 5637 5637 5636 5635 5636 5637 5638 5638 5639 5640 5640 5641 5642 5643 5644 5646 5648 5649 5651 5653 5655 5655 5656 5657 5658 5659 5659 5660 5661 5663 5663 5662 5662
5651 5651 5650 5648 5646 5645 5643 5642 5641 5640 5640 5638 5636 5635 5636 5635 5635 5635 5635 5635 5634 5634 5635 5635 5636 5637 5637 5638 5640 5643 5646 5647 5648 5649 5650 5651 5652 5652 5652 5654 5656 5657 5659
5656 5655 5654 5653 5651 5650 5647 5645 5644 5643 5642 5640 5637 5636 5635 5634 5633 5632 5631 5630 5628 5627 5627 5626 5627 5628 5628 5630 5632 5634 5638 5638 5639 5640 5642 5644 5645 5647 5648 5647 5648 5649 5651
5661 5660 5660 5658 5657 5655 5652 5649 5648 5646 5643 5640 5637 5635 5634 5632 5630 5628 5626 5625 5624 5621 5620 5619 5620 5620 5621 5622 5624 5626 5630 5630 5631 5633 5635 5638 5640 5642 5644 5646 5646 5647 5646
5666 5665 5664 5663 5662 5659 5656 5654 5652 5648 5644 5640 5637 5635 5633 5630 5628 5626 5623 5621 5619 5616 5615 5613 5613 5613 5614 5615 5617 5619 5622 5623 5624 5626 5628 5631 5633 5633 5637 5641 5640 5639 5638
5671 5669 5669 5667 5665 5662 5660 5657 5653 5650 5644 5640 5638 5636 5633 5629 5626 5623 5621 5618 5616 5613 5611 5608 5607 5607 5608 5608 5610 5612 5616 5616 5617 5618 5621 5622 5625 5626 5630 5636 5636 5635 5635
5674 5673 5672 5669 5667 5665 5662 5659 5656 5651 5646 5642 5638 5635 5633 5629 5624 5621 5619 5616 5613 5611 5608 5606 5604 5603 5602 5603 5603 5605 5610 5609 5610 5611 5614 5616 5617 5620 5624 5630 5633 5632 5634
5677 5675 5674 5672 5669 5667 5665 5662 5656 5652 5647 5643 5639 5636 5632 5629 5625 5620 5617 5615 5613 5610 5607 5605 5602 5601 5600 5598 5598 5600 5601 5604 5605 5606 5608 5610 5612 5615 5619 5623 5624 5626 5630
5681 5678 5676 5674 5672 5670 5667 5664 5659 5654 5650 5646 5641 5638 5634 5629 5625 5621 5617 5614 5612 5609 5607 5603 5601 5600 5599 5598 5596 5597 5597 5599 5601 5601 5601 5604 5607 5611 5614 5615 5618 5622 5626
5684 5681 5679 5677 5675 5672 5669 5667 5662 5658 5654 5649 5645 5641 5637 5632 5627 5621 5618 5614 5611 5609 5606 5603 5601 5600 5600 5597 5598 5598 5598 5597 5598 5599 5599 5601 5604 5608 5609 5612 5616 5620 5621
5687 5685 5682 5679 5677 5675 5672 5669 5665 5662 5658 5654 5649 5645 5640 5635 5630 5625 5619 5616 5610 5606 5604 5604 5603 5600 5599 5594 5593 5597 5600 5600 5600 5601 5603 5605 5606 5608 5609 5611 5614 5616 5618
5691 5688 5685 5682 5681 5679 5675 5672 5668 5665 5662 5659 5654 5649 5644 5639 5635 5631 5626 5615 5612 5607 5604 5602 5601 5601 5597 5596 5596 5597 5598 5599 5601 5604 5604 5605 5606 5607 5609 5611 5612 5614 5615